Погода в Пхалаборве

ЮАР     23°56′35″S   31°07′44″E
темп.,
°C
ветер,
м/с
пор.,
м/с
влажн.,
%
обл.,
%
осадки,
мм/ч
давл.,
гПа
погр.,
м
5 декабря, вс
вс523:00+27юв48582 0.0 1012206
02:00+24юв23665 0.0 101356
05:00+22юв2687100 0.0 1015193
08:00+28всв344782 0.0 10161020
11:00+35св352618 0.0 10132083
14:00+33ссз342980 0.0 1010908
17:00+36св352522 0.0 10082082
20:00+31юв223456 0.0 100914
6 декабря, пн
пн623:00+29вюв494389 0.1 1012685
02:00+25юв2357100 0.1 101273
05:00+24всв246489 0.0 1013108
08:00+27ююв1155100 0.0 1015558
11:00+28юв2351100 0.0 1013802
14:00+28з1149100 0.0 1011380
17:00+33зсз233580 0.0 10081001
20:00+28ююз3449100 0.0 101071
7 декабря, вт
вт723:00+26ю2557100 1.3 101295
02:00+21ююз5891100 7.9 1014186
05:00+22з1286100 0.6 101449
08:00+27з1163100 0.6 1015458
11:00+33в444289 0.0 10151542
14:00+35всв443621 0.0 10122116
17:00+34вюв4538100 0.0 10101027
20:00+23ю61097100 43.2 1016478
8 декабря, ср
ср823:00+22юв5996100 12.8 1019470
02:00+21ю4895100 24.6 1018371
05:00+20юв4894100 3.9 1019408
08:00+20юв3796100 9.7 1020422
11:00+21юв3590100 1.7 1020442
14:00+23юв3381100 1.7 1017668
17:00+23вюв337533 0.1 1016598
20:00+21ююз2388100 0.1 101669
9 декабря, чт
чт923:00+20всв2289100 0.0 101863
02:00+20вюв0186100 0.0 101611
05:00+20ююз008778 0.0 101711
08:00+24з11716 0.0 1017501
11:00+30с345339 0.0 10151530
14:00+32ссз344099 0.0 10122076
17:00+31ссз3446100 0.0 1010468
20:00+27зсз2258100 0.0 101036